User: anonymous   Login
Location: Unspecified
(0.0000°N, 0.0000°E)
Time: 10:07:03
(UTC+01:00)
Language:

Cosmos 1933 - Orbit

View from above orbital plane
View from above orbital plane
View from above satellite
View from above satellite

Ground track
Ground track

The orbit data is extracted from the following two-line orbital elements,

1 18958U 88020A   18051.94475363 +.00000662 +00000-0 +46551-4 0  9994
2 18958 082.5278 223.7792 0012273 150.0304 210.1627 15.03394729607730
Epoch (UTC): 20 February 2018 22:40:26
Eccentricity: 0.0012273
inclination: 82.5278°
perigee height: 548 km
apogee height: 565 km
right ascension of ascending node: 223.7792°
argument of perigee: 150.0304°
revolutions per day: 15.03394729
mean anomaly at epoch: 210.1627°
orbit number at epoch: 60773

The dashed part of the orbit path shows where the satellite is in the earth's shadow,  

DLR